Regional Weather Roundup
Issued by NWS

Home | Current Version | Previous Version | Graphics & Text | Print | Product List | Glossary Off
Versions: 1 2 3 4 5 6 7 8 9 10 11 12 13 14 15 16 17 18 19 20 21 22 23 24 25 26 27 28 29 30 31 32 33 34 35 36 37 38 39 40 41 42 43 44 45 46 47 48 49 50

000
ASUS43 KMKX 292159
RWRWI

WISCONSIN REGIONAL WEATHER ROUNDUP
NATIONAL WEATHER SERVICE MILWAUKEE/SULLIVAN WI
400 PM CST THU JAN 29 2015

NOTE: "FAIR" INDICATES FEW OR NO CLOUDS BELOW 12,000 FEET WITH NO
SIGNIFICANT WEATHER AND/OR OBSTRUCTIONS TO VISIBILITY.

WIZ001-002-006>008-014>016-023>028-292300-
NORTHWEST WISCONSIN

CITY           SKY/WX    TMP DP  RH WIND       PRES   REMARKS
SUPERIOR ARPT  CLOUDY    20  10  64 NW17G25   30.32R WCI   5
ASHLAND        CLOUDY    24  13  62 NW16G23   30.24R WCI  11
HAYWARD        CLOUDY    21  10  62 N12G24    30.23R WCI   9
SIREN          CLOUDY    24  13  63 N14G24    30.29R WCI  11
CUMBERLAND     CLOUDY    25  16  68 NW24      30.22R WCI   9
RICE LAKE      CLOUDY    27  17  66 NW12G23   30.23R WCI  16
CHETEK         CLOUDY    27  18  68 NW6G16    30.21R WCI  21
LADYSMITH      CLOUDY    27  18  68 NW13G23   30.19R WCI  16
EAU CLAIRE     NOT AVBL
MENOMONIE      CLOUDY    29  19  65 W17G24    30.23R WCI  17
NEW RICHMOND   PTSUNNY   26  16  64 NW18G28   30.27R WCI  13
OSCEOLA        PTSUNNY   27  16  62 NW16G26   30.32R WCI  15
$$

WIZ003>005-009-010-017-018-292300-
NORTH CENTRAL WISCONSIN

CITY           SKY/WX    TMP DP  RH WIND       PRES   REMARKS
MANITOWISH WTR LGT SNOW  20  14  77 N13G26    30.10R WCI   7
ARBOR VITAE    LGT SNOW  22  17  78 N18G28    30.09R WCI   8
WOODRUFF       LGT SNOW  22  17  78 N18G28    30.09R WCI   8
RHINELANDER    FLURRIES  23  15  71 NW16G23   30.08R WCI  10
EAGLE RIVER    LGT SNOW  21  15  76 NW20G26   30.06R WCI   6
LAND O LAKES   LGT SNOW  20  15  81 N15G23    30.08R WCI   6
PHILLIPS       CLOUDY    24  15  66 NW12      30.12R WCI  13
TOMAHAWK       CLOUDY    26  16  66 NW15G26   30.08R WCI  14
MEDFORD        CLOUDY    28  19  71 NW15G22   30.09R WCI  16
MERRILL        CLOUDY    28  18  65 NW14G25   30.07R WCI  17
$$

WIZ029-030-035-036-043>047-292300-
CENTRAL WISCONSIN

CITY           SKY/WX    TMP DP  RH WIND       PRES   REMARKS
WAUSAU         CLOUDY    29  17  61 NW22G31   30.07R WCI  15
MOSINEE        CLOUDY    30  19  64 NW24G31   30.08R WCI  16
MARSHFIELD     CLOUDY    30  20  66 NW28G35   30.11R WCI  15
STEVENS POINT  CLOUDY    32  17  54 NW15G25   30.06R WCI  21
WAUPACA        CLOUDY    36  20  52 NW14G24   30.05R WCI  27
WAUTOMA        NOT AVBL
WISC RAPIDS    MOCLDY    32  17  54 N15G38    30.11R WCI  22
CAMP DOUGLAS   NOT AVBL
$$

WIZ011>013-019>022-031-037>040-048>050-292300-
NORTHEAST WISCONSIN

CITY           SKY/WX    TMP DP  RH WIND       PRES   REMARKS
ANTIGO         CLOUDY    25  17  73 N28G38    30.04R HAZE    WCI   8
SHAWANO        CLOUDY    33  18  52 N22G32    30.04R WCI  21
OCONTO         CLOUDY    32  19  59 MISG      30.01R
STURGEON BAY   CLOUDY    30  19  64 NW22      30.02R WCI  17
GREEN BAY      CLOUDY    33  20  58 NW13      30.03R WCI  24
MANITOWOC      NOT AVBL
APPLETON       MOCLDY    32  18  55 NW21G35   30.04R WCI  20
CLINTONVILLE   CLOUDY    32  18  55 N18G29    30.04R WCI  20
OSHKOSH        CLOUDY    34  22  61 NW22      30.04R WCI  22
$$

WIZ032>034-041-042-053>061-292300-
SOUTHWEST WISCONSIN

CITY           SKY/WX    TMP DP  RH WIND       PRES   REMARKS
LA CROSSE      CLOUDY    34  22  61 NW18G28   30.20R WCI  23
SPARTA         CLOUDY    33  22  62 NW15G21   30.17R WCI  23
VIROQUA        CLOUDY    32  23  70 NW20G25   30.13R WCI  20
BOSCOBEL       CLOUDY    36  24  62 NW10G22   30.17R WCI  28
PRAIRIE DU CHI CLOUDY    35  22  60 NW14G25   30.18R WCI  26
PLATTEVILLE    CLOUDY    35  27  74 W18G24    30.13R WCI  24
$$

WIZ056-057-062-063-064-067-068-292300-
SOUTH CENTRAL WISCONSIN

CITY           SKY/WX    TMP DP  RH WIND       PRES   REMARKS
REEDSBURG      CLOUDY    33  23  65 NW17G23   30.10R WCI  22
BARABOO/DELLS  CLOUDY    33  21  59 NW13G23   30.09R WCI  24
LONE ROCK      NOT AVBL
MINERAL POINT  CLOUDY    34  27  75 NW14G23   30.10R WCI  24
MADISON        CLOUDY    34  23  64 NW14G23   30.09R WCI  25
MIDDLETON      CLOUDY    35  25  66 NW15G25   30.09R WCI  25
WATERTOWN      CLOUDY    33  24  69 NW20G25   30.05R WCI  22
MONROE         CLOUDY    34  27  75 NW14G24   30.08R WCI  24
JANESVILLE     CLOUDY    36  25  64 NW18G26   30.08R WCI  25
$$

WIZ051-052-058>065-066-070>072-292300-
SOUTHEAST WISCONSIN

CITY           SKY/WX    TMP DP  RH WIND       PRES   REMARKS
MILWAUKEE      CLOUDY    35  22  58 NW16G24   30.04R WCI  25
WAUKESHA       CLOUDY    32  25  74 NW15G21   30.04R WCI  22
MILWAUKEE/TIMM CLOUDY    34  23  64 NW15G23   30.03R WCI  24
RACINE         CLOUDY    35  24  64 NW16      30.05R WCI  25
BURLINGTON     CLOUDY    32  24  73 NW18      30.05R WCI  21
KENOSHA        CLOUDY    35  25  66 NW14G29   30.04R WCI  26
FOND DU LAC    CLOUDY    34  22  61 NW16G25   30.04R WCI  24
SHEBOYGAN      CLOUDY    34  23  64 NW17G24   30.01R WCI  23
WEST BEND      CLOUDY    32  23  69 NW13G22   30.01R WCI  22
JUNEAU         CLOUDY    33  23  68 NW18G25   30.05R WCI  21
$$

LSZ147-162-292300-
LAKE SUPERIOR

STATION/POSITION TIME  TEMP    WIND        PRES    WAVE
                       AIR SEA DIR/SP/G            HT/PER
                 (UTC) (F)     (DEG/KT/KT) (MB)    (FT/S)
DEVILS ISLAND    2100   23     330/ 20/ 24 1024.5R
PORT WING        2128   23     300/ 22/ 25 1024.7R
SAXON HARBOR     2124   25     330/ 20/ 25 1022.7R
$$

LMZ867-665-643>646-292300-
LAKE MICHIGAN

STATION/POSITION TIME  TEMP    WIND        PRES    WAVE
                       AIR SEA DIR/SP/G            HT/PER
                 (UTC) (F)     (DEG/KT/KT) (MB)    (FT/S)
NORTHPORT PIER   2103   27     360/ 25     1014.2R
SISTER BAY       2113   31     340/ 19/ 22   N/A
KEWAUNEE LAKESHO 2100   34     320/  5/ 11 1013.5R
SHEBOYGAN LAKESH 2100   34     320/ 13/ 16 1016.0R
PORT WASHINGTON  2140   35     320/  8/ 19 1017.3R
MILWAUKEE LAKESH 2100   35     330/ 13/ 20   N/A
KENOSHA   LAKESH 2100   35     320/ 12/ 17 1016.3R
$$

TC  - TEMPERATURE IN CELSIUS
VSB - VISIBILITY IN STATUTE MILES
WCI - WIND CHILL INDEX
HX  - HEAT INDEX




USA.gov is the U.S. government's official web portal to all federal, state and local government web resources and services.